Kaneohe, HI

5:22 AM HST on August 28, 2016 (GMT -1000)
Kaneohe Bay Marine Corps Air Facility

Weather History for PHNG - April, 2013

Change the Weather History Date:

Wednesday, April 10, 2013

  Actual Average Record
Temperature  
Mean Temperature 76 °F -  
Max Temperature 80 °F 76 °F 84 °F (2002)
Min Temperature 71 °F 68 °F 68 °F (2009)
Cooling Degree Days 10    
Growing Degree Days 26 (Base 50)    
Moisture  
Dew Point 68 °F    
Average Humidity 78    
Maximum Humidity 98    
Minimum Humidity 61    
Precipitation  
Precipitation 0.00 in - - ()
Sea Level Pressure  
Sea Level Pressure 30.04 in    
Wind  
Wind Speed 8 mph (East)    
Max Wind Speed 13 mph    
Max Gust Speed 24 mph    
Visibility 9 miles    
Events      
Averages and records for this station are not official NWS values.
T = Trace of Precipitation, MM = Missing Value Source: NWS Daily Summary

Daily Weather History Graph

Daily Weather History Graph

Search for Another Location

Airport or City:

Trip Planner

Search our weather history database for the weather conditions in past years. The results will help you decide how hot, cold, wet, or windy it might be!

Date:

Astronomy

Apr. 10, 2013 Rise Set
Actual Time 6:15 AM HST 6:49 PM HST
Civil Twilight 5:53 AM HST 7:11 PM HST
Nautical Twilight 5:26 AM HST 7:38 PM HST
Astronomical Twilight 5:00 AM HST 8:04 PM HST
Moon 6:23 AM HST (4/10) 7:26 PM HST (4/10)
Length of Visible Light 13h 18m
Length of Day
12h 33m
New Moon, 0% of the Moon is Illuminated
Apr 10
New Moon
Apr 18
First Quarter
Apr 25
Full
May 2
Last Quarter
May 9
New

Hourly Weather History & Observations

Time (HST) Temp. Heat Index Dew Point Humidity Pressure Visibility Wind Dir Wind Speed Gust Speed Precip Events Conditions
12:10 AM - - - N/A% 30.08 in 6.2 mi East 10.4 mph 24.2 mph N/A   Overcast
12:57 AM 73.4 °F - 70.0 °F 89% 30.06 in 10.0 mi East 6.9 mph 16.1 mph N/A   Scattered Clouds
1:57 AM 71.6 °F - 71.1 °F 98% 30.04 in 10.0 mi East 8.1 mph 17.3 mph N/A   Partly Cloudy
2:57 AM 71.6 °F - 70.0 °F 95% 30.03 in 10.0 mi East 11.5 mph 20.7 mph N/A   Scattered Clouds
3:44 AM - - - N/A% 30.04 in 6.2 mi East 6.9 mph - N/A   Mostly Cloudy
3:57 AM - - - N/A% 30.03 in 10.0 mi East 5.8 mph - N/A   Mostly Cloudy
4:57 AM 71.6 °F - 69.1 °F 92% 30.03 in 10.0 mi East 8.1 mph - N/A   Mostly Cloudy
5:36 AM 71.6 °F - 69.8 °F 94% 30.04 in 6.2 mi ESE 5.8 mph - N/A   Scattered Clouds
5:57 AM 71.6 °F - 69.1 °F 92% 30.04 in 10.0 mi ESE 5.8 mph - N/A   Partly Cloudy
6:57 AM 73.4 °F - 69.1 °F 86% 30.05 in 10.0 mi ESE 5.8 mph - N/A   Clear
7:57 AM 73.4 °F - 69.1 °F 86% 30.06 in 10.0 mi East 8.1 mph - N/A   Mostly Cloudy
8:57 AM 73.4 °F - 69.1 °F 86% 30.07 in 10.0 mi ESE 8.1 mph - N/A   Clear
9:37 AM 75.2 °F - 69.8 °F 83% 30.09 in 6.2 mi East 8.1 mph - N/A   Mostly Cloudy
9:57 AM 75.2 °F - 69.1 °F 81% 30.08 in 10.0 mi East 10.4 mph 18.4 mph N/A   Mostly Cloudy
10:57 AM 77.0 °F - 69.1 °F 76% 30.08 in 10.0 mi ESE 12.7 mph 16.1 mph N/A   Overcast
11:09 AM - - - N/A% 30.09 in 6.2 mi East 8.1 mph 18.4 mph N/A   Overcast
11:57 AM 77.0 °F - 69.1 °F 76% 30.06 in 10.0 mi East 8.1 mph - N/A   Overcast
12:57 PM 80.6 °F 83.2 °F 68.0 °F 65% 30.04 in 10.0 mi East 9.2 mph 16.1 mph N/A   Overcast
1:57 PM 80.6 °F 82.9 °F 66.9 °F 63% 30.01 in 10.0 mi ENE 11.5 mph - N/A   Overcast
2:57 PM 80.6 °F 83.2 °F 68.0 °F 65% 30.00 in 10.0 mi ENE 6.9 mph - N/A   Mostly Cloudy
3:06 PM - - - N/A% 30.01 in 6.2 mi ENE 9.2 mph - N/A   Overcast
3:15 PM 80.6 °F 82.7 °F 66.2 °F 61% 30.01 in 6.2 mi ENE 8.1 mph 17.3 mph N/A   Overcast
3:57 PM 80.6 °F 82.9 °F 66.9 °F 63% 29.99 in 10.0 mi ENE 8.1 mph 16.1 mph N/A   Overcast
4:57 PM 78.8 °F - 66.9 °F 67% 29.99 in 10.0 mi East 9.2 mph - N/A   Mostly Cloudy
5:57 PM 77.0 °F - 66.0 °F 69% 30.00 in 10.0 mi East 6.9 mph 18.4 mph N/A   Mostly Cloudy
6:14 PM 75.2 °F - 66.2 °F 73% 30.02 in 6.2 mi ENE 11.5 mph 18.4 mph N/A   Mostly Cloudy
6:46 PM 75.2 °F - 66.2 °F 73% 30.04 in 6.2 mi ENE 6.9 mph - N/A   Mostly Cloudy
6:57 PM 75.2 °F - 66.0 °F 73% 30.02 in 10.0 mi East 10.4 mph 16.1 mph N/A   Mostly Cloudy
7:04 PM 75.2 °F - 66.2 °F 73% 30.04 in 6.2 mi ENE 9.2 mph - N/A   Overcast
7:33 PM 75.2 °F - 66.2 °F 73% 30.04 in 6.2 mi East 6.9 mph - N/A   Overcast
7:57 PM 75.2 °F - 66.9 °F 75% 30.04 in 10.0 mi ENE 6.9 mph - N/A   Overcast
8:57 PM 75.2 °F - 69.1 °F 81% 30.05 in 10.0 mi East 8.1 mph 17.3 mph N/A   Mostly Cloudy
9:57 PM 75.2 °F - 70.0 °F 84% 30.06 in 10.0 mi Variable 6.9 mph - N/A   Mostly Cloudy
10:08 PM 75.2 °F - 68.0 °F 78% 30.08 in 6.2 mi Variable 5.8 mph - N/A   Mostly Cloudy
10:57 PM 75.2 °F - 68.0 °F 78% 30.07 in 10.0 mi East 8.1 mph - N/A   Mostly Cloudy
11:37 PM 75.2 °F - 68.0 °F 78% 30.07 in - East 6.9 mph 19.6 mph 0.00 in   Overcast
11:57 PM 75.2 °F - 68.0 °F 78% 30.05 in - East 8.1 mph - 0.00 in   Mostly Cloudy